This is the latest recevied weather packets stored in our database for station/object WX0ABE-13. If no packets are shown the sender has not sent any weather packets the latest 10 day(s).
| Time | Temp. | Humidity | Pressure | Rain* | Wind** | Luminosity | Snow |
|---|---|---|---|---|---|---|---|
| 1787799621 | 23.89° C | 60% | 1023.2 hPa | 0 mm | - | 0 W/m² | - |
| 1787799314 | 24.44° C | 59% | 1023.1 hPa | 0 mm | - | 0 W/m² | - |
| 1787799013 | 24.44° C | 60% | 1023.1 hPa | 0 mm | - | 0 W/m² | - |
| 1787798712 | 24.44° C | 58% | 1022.9 hPa | 0 mm | - | 0 W/m² | - |
| 1787798408 | 24.44° C | 58% | 1022.9 hPa | 0 mm | - | 0 W/m² | - |
| 1787798102 | 25° C | 57% | 1022.9 hPa | 0 mm | - | 0 W/m² | - |
| 1787797800 | 25° C | 57% | 1022.9 hPa | 0 mm | - | 0 W/m² | - |
| 1787797496 | 25° C | 57% | 1022.9 hPa | 0 mm | - | 0 W/m² | - |
| 1787797191 | 25° C | 57% | 1022.9 hPa | 0 mm | - | 0 W/m² | - |
| 1787796886 | 25.56° C | 55% | 1022.9 hPa | 0 mm | - | 0 W/m² | - |
| 1787796586 | 25.56° C | 57% | 1022.6 hPa | 0 mm | - | 0 W/m² | - |
| 1787796282 | 25.56° C | 55% | 1022.7 hPa | 0 mm | - | 0 W/m² | - |
| 1787795980 | 25.56° C | 56% | 1022.4 hPa | 0 mm | - | 0 W/m² | - |
| 1787795674 | 25.56° C | 56% | 1022.3 hPa | 0 mm | - | 0 W/m² | - |
| 1787795370 | 26.11° C | 56% | 1022.2 hPa | 0 mm | - | 0 W/m² | - |
| 1787795068 | 26.11° C | 56% | 1022.2 hPa | 0 mm | - | 1 W/m² | - |
| 1787794763 | 26.11° C | 57% | 1022.1 hPa | 0 mm | - | 1 W/m² | - |
| 1787794459 | 25.56° C | 60% | 1021.8 hPa | 0 mm | - | 2 W/m² | - |
| 1787794159 | 25.56° C | 59% | 1021.7 hPa | 0 mm | - | 3 W/m² | - |
| 1787793855 | 26.11° C | 57% | 1021.7 hPa | 0 mm | - | 5 W/m² | - |
| 1787793550 | 26.11° C | 57% | 1021.6 hPa | 0 mm | - | 6 W/m² | - |
| 1787793245 | 26.11° C | 56% | 1021.4 hPa | 0 mm | - | 9 W/m² | - |
| 1787792940 | 26.11° C | 57% | 1021.7 hPa | 0 mm | - | 14 W/m² | - |
| 1787792635 | 26.67° C | 57% | 1021.3 hPa | 0 mm | - | 19 W/m² | - |
| 1787792333 | 26.67° C | 57% | 1021.7 hPa | 0 mm | - | 30 W/m² | - |
* Rain latest hour (hover to see other rain measurements)
** Current wind speed in m/s (hover to see current wind gust speed)